Showing default

LEMUR 2 SEJONG-2, 64586

Orbit data source: Space-Track

LEMUR 2 SEJONG-2, 64586 is a payload satellite owned by Hancom InSpace (US) in SSO that was launched on Mon, 23 Jun 2025 UTC via an FALCON 9 launch vehicle from the Air Force Western Test Range (AFWTR). Payload-class satellites include a variety of spacecraft equipped with specific instruments for various scientific and technological missions. These include communications satellites like Starlink; space stations such as the ISS; scientific satellites like the Hubble; Earth observation satellites from companies like Planet Labs, Umbra, and HawkEye 360; GPS; miniature CubeSats for education and research; and military/defense satellites.

Loading next visibility...
Identifier
64586, 2025-135BL
Orbit
SSO
Country
Flag of USUS
Related business
Manufacturer
Spire/Glasgow
Mission
Operational Commercial Imaging
Bus & Motor
CUBESAT 6U, Unknown motor
Mass
11 kg wet, 11 kg dry
Launch date (UTC)
2025-06-23 (1 year ago)
Launch vehicle
FALCON 9
Launch site
Air Force Western Test Range (AFWTR)
Object type
Payload
Rocket body
Debris
Shape & HBR
Box + 2 Pan, 0.4 m
Radar Cross Section
0.077 m², Medium (>0.1 m² and < 1m²)

Expand to show TLE details & history
Last TLE update: 6 hours ago

TLE from 6 hours ago
0 LEMUR 2 SEJONG-2
1 64586U 25135BL  26171.58081462  .00003354  00000-0  29868-3 0  9997
2 64586  97.7684 286.5782 0003486 324.5419  35.5570 14.96716741 54458
Epoch: 2026-06-20T13:56Z
TLE epoch observation values (Epoch: 2026-06-20T13:56:22.383Z)
Latitude
-0.00003°
Longitude
168.69155°
Altitude
578.125 km
Speed
7.573 km/s
True Right ascension
19h 06m 18s
True Declination
0° 00' 00"
Sunlit
Object was in full shadow at epoch
Visualization orbit readout
Latitude
Unknown
Longitude
Unknown
Altitude
Unknown
Speed
Unknown
Apparent Right ascension
Unknown
Apparent Declination
Unknown
Sunlit
N/A
Visualization observer readout
Local Sidereal Time
07:21:33
Azimuth
Unknown
Elevation
Unknown
Doppler factor
Unknown
Orbital elements
Apogee altitude
576.485 km
Perigee altitude
571.638 km
Semi-major axis
6,952.199 km
Eccentricity
0.00035
Inclination
97.7684°
RAAN
286.5782°
Arg. of periapsis
324.5419°
True anomaly
35.58024°
Mean anomaly
35.557°
Eccentric anomaly
35.56862°
Mean motion
3.74421 °/min
Orbital period
96.15 mins
BSTAR
0.00029868
Loading maneuver chart data...
Computing Atmospheric mass density...
Loading historical data...
Loading historical data...
Loading historical data...
Loading historical data...
Loading historical data...
Loading historical data...
Loading historical data...

Documentation

Showing up to 5 results
|